When you browse on this site, cookies collect data to enhance your experience and personalize the content and advertising you see.
Visit our Privacy Policy to learn more. By continuing to use the site, you agree to this use of cookies and data.
  • In Hungary
  • List of Countries
  • For 7 days
  • Water Temperature
  • Satellite Maps
  • Weather Map
  • News
  • Weather Widgets
  • user-avatar
    Login

    Hourly Weather Khair

    Today, 26 March, Tuesday

    Time Temperature Precipitation Wind Pressure Humidity
    00:00 +21°C° 0 mm 2 mps 742 mmHg 51%
    01:00 +20°C° 0 mm 2 mps 742 mmHg 52%
    02:00 +20°C° 0 mm 2 mps 742 mmHg 53%
    03:00 +19°C° 0 mm 2 mps 742 mmHg 55%
    04:00 +19°C° 0 mm 2 mps 742 mmHg 57%
    05:00 +18°C° 0 mm 2 mps 742 mmHg 62%
    06:00 +20°C° 0 mm 3 mps 742 mmHg 58%
    07:00 +21°C° 0 mm 3 mps 743 mmHg 54%
    08:00 +22°C° 0 mm 3 mps 743 mmHg 51%
    09:00 +26°C° 0 mm 4 mps 743 mmHg 41%
    10:00 +29°C° 0 mm 5 mps 743 mmHg 32%
    11:00 +33°C° 0 mm 5 mps 744 mmHg 24%
    12:00 +33°C° 0 mm 5 mps 743 mmHg 21%
    13:00 +34°C° 0 mm 5 mps 743 mmHg 19%
    14:00 +35°C° 0 mm 5 mps 742 mmHg 17%
    15:00 +35°C° 0 mm 4 mps 742 mmHg 18%
    16:00 +34°C° 0 mm 3 mps 742 mmHg 19%
    17:00 +32°C° 0 mm 2 mps 742 mmHg 20%
    18:00 +30°C° 0 mm 2 mps 742 mmHg 21%
    19:00 +28°C° 0 mm 2 mps 742 mmHg 23%
    20:00 +26°C° 0 mm 1 mps 742 mmHg 24%
    21:00 +25°C° 0 mm 2 mps 742 mmHg 24%
    22:00 +25°C° 0 mm 2 mps 742 mmHg 25%
    23:00 +24°C° 0 mm 2 mps 742 mmHg 25%

    Tomorrow, 27 March, Wednesday

    Time Temperature Precipitation Wind Pressure Humidity
    00:00 +24°C° 0 mm 2 mps 742 mmHg 27%
    01:00 +23°C° 0 mm 2 mps 742 mmHg 28%
    02:00 +23°C° 0 mm 2 mps 742 mmHg 30%
    03:00 +21°C° 0 mm 2 mps 742 mmHg 31%
    04:00 +22°C° 0 mm 1 mps 742 mmHg 32%
    05:00 +22°C° 0 mm 1 mps 741 mmHg 34%
    06:00 +24°C° 0 mm 2 mps 742 mmHg 32%
    07:00 +25°C° 0 mm 2 mps 743 mmHg 30%
    08:00 +27°C° 0 mm 3 mps 744 mmHg 28%
    09:00 +30°C° 0 mm 3 mps 744 mmHg 24%
    10:00 +34°C° 0 mm 4 mps 744 mmHg 20%
    11:00 +36°C° 0 mm 4 mps 744 mmHg 16%
    12:00 +37°C° 0 mm 5 mps 743 mmHg 15%
    13:00 +39°C° 0 mm 5 mps 742 mmHg 15%
    14:00 +39°C° 0 mm 5 mps 741 mmHg 14%
    15:00 +38°C° 0 mm 4 mps 741 mmHg 15%
    16:00 +37°C° 0 mm 3 mps 740 mmHg 17%
    17:00 +36°C° 0 mm 2 mps 740 mmHg 18%
    18:00 +34°C° 0 mm 2 mps 740 mmHg 20%
    19:00 +31°C° 0 mm 1 mps 741 mmHg 22%
    20:00 +29°C° 0 mm 1 mps 741 mmHg 23%
    21:00 +28°C° 0 mm 1 mps 741 mmHg 24%
    22:00 +28°C° 0 mm 1 mps 741 mmHg 25%
    23:00 +27°C° 0 mm 1 mps 741 mmHg 26%

    Day after tomorrow, 28 March, Thursday

    Time Temperature Precipitation Wind Pressure Humidity
    00:00 +26°C° 0 mm 1 mps 741 mmHg 27%
    01:00 +26°C° 0 mm 1 mps 741 mmHg 28%
    02:00 +23°C° 0 mm 0 mps 741 mmHg 29%
    03:00 +25°C° 0 mm 1 mps 740 mmHg 30%
    04:00 +25°C° 0 mm 1 mps 740 mmHg 30%
    05:00 +24°C° 0 mm 1 mps 740 mmHg 31%
    06:00 +26°C° 0 mm 1 mps 741 mmHg 29%
    07:00 +28°C° 0 mm 1 mps 741 mmHg 27%
    08:00 +30°C° 0 mm 1 mps 742 mmHg 25%
    09:00 +32°C° 0 mm 2 mps 742 mmHg 22%
    10:00 +36°C° 0 mm 3 mps 742 mmHg 19%
    11:00 +38°C° 0 mm 3 mps 742 mmHg 16%
    12:00 +40°C° 0 mm 4 mps 741 mmHg 15%
    13:00 +41°C° 0 mm 5 mps 740 mmHg 14%
    14:00 +42°C° 0 mm 6 mps 739 mmHg 13%
    15:00 +42°C° 0 mm 5 mps 739 mmHg 14%
    16:00 +41°C° 0 mm 4 mps 738 mmHg 16%
    17:00 +39°C° 0 mm 3 mps 738 mmHg 17%
    18:00 +37°C° 0 mm 2 mps 738 mmHg 19%
    19:00 +35°C° 0 mm 2 mps 738 mmHg 21%
    20:00 +32°C° 0 mm 1 mps 739 mmHg 23%
    21:00 +31°C° 0 mm 2 mps 739 mmHg 24%
    22:00 +30°C° 0 mm 2 mps 739 mmHg 25%
    23:00 +29°C° 0 mm 2 mps 739 mmHg 26%

    29 March, Friday

    Time Temperature Precipitation Wind Pressure Humidity
    00:00 +29°C° 0 mm 2 mps 739 mmHg 28%
    01:00 +28°C° 0 mm 2 mps 738 mmHg 29%
    02:00 +27°C° 0 mm 1 mps 738 mmHg 31%
    03:00 +26°C° 0 mm 1 mps 738 mmHg 33%
    04:00 +26°C° 0 mm 1 mps 738 mmHg 34%
    05:00 +23°C° 0 mm 0 mps 738 mmHg 36%
    06:00 +27°C° 0 mm 1 mps 738 mmHg 33%
    07:00 +28°C° 0 mm 1 mps 739 mmHg 31%
    08:00 +30°C° 0 mm 2 mps 740 mmHg 28%
    09:00 +34°C° 0 mm 2 mps 740 mmHg 24%
    10:00 +37°C° 0 mm 2 mps 740 mmHg 20%
    11:00 +39°C° 0 mm 3 mps 740 mmHg 16%
    12:00 +41°C° 0 mm 4 mps 739 mmHg 15%
    13:00 +43°C° 0 mm 5 mps 738 mmHg 13%
    14:00 +45°C° 0 mm 5 mps 737 mmHg 11%
    15:00 +43°C° 0 mm 5 mps 737 mmHg 12%
    16:00 +42°C° 0 mm 4 mps 736 mmHg 13%
    17:00 +41°C° 0 mm 4 mps 736 mmHg 13%
    18:00 +39°C° 0 mm 3 mps 736 mmHg 14%
    19:00 +37°C° 0 mm 3 mps 737 mmHg 15%
    20:00 +35°C° 0 mm 2 mps 737 mmHg 16%
    21:00 +34°C° 0 mm 2 mps 737 mmHg 17%
    22:00 +32°C° 0 mm 2 mps 737 mmHg 17%
    23:00 +31°C° 0 mm 2 mps 738 mmHg 18%

    30 March, Saturday

    Time Temperature Precipitation Wind Pressure Humidity
    00:00 +31°C° 0 mm 2 mps 737 mmHg 19%
    01:00 +30°C° 0 mm 2 mps 737 mmHg 20%
    02:00 +29°C° 0 mm 1 mps 736 mmHg 21%
    03:00 +29°C° 0 mm 1 mps 736 mmHg 22%
    04:00 +28°C° 0 mm 1 mps 736 mmHg 22%
    05:00 +26°C° 0 mm 0 mps 736 mmHg 23%
    06:00 +29°C° 0 mm 1 mps 737 mmHg 22%
    07:00 +31°C° 0 mm 1 mps 738 mmHg 21%
    08:00 +33°C° 0 mm 1 mps 739 mmHg 20%
    09:00 +35°C° 0 mm 1 mps 738 mmHg 18%
    10:00 +39°C° 0 mm 1 mps 738 mmHg 15%
    11:00 +41°C° 0 mm 1 mps 738 mmHg 13%
    12:00 +42°C° 0 mm 2 mps 737 mmHg 12%
    13:00 +44°C° 0 mm 3 mps 736 mmHg 10%
    14:00 +45°C° 0 mm 4 mps 736 mmHg 9%
    15:00 +44°C° 0 mm 3 mps 735 mmHg 10%
    16:00 +43°C° 0 mm 3 mps 735 mmHg 10%
    17:00 +43°C° 0 mm 3 mps 735 mmHg 10%
    18:00 +39°C° 0.1 mm 2 mps 735 mmHg 13%
    19:00 +36°C° 0.1 mm 1 mps 736 mmHg 15%
    20:00 +33°C° 0.1 mm 1 mps 736 mmHg 17%
    21:00 +33°C° 0 mm 1 mps 736 mmHg 17%
    22:00 +32°C° 0 mm 2 mps 736 mmHg 18%
    23:00 +32°C° 0 mm 2 mps 736 mmHg 18%

    31 March, Sunday

    Time Temperature Precipitation Wind Pressure Humidity
    00:00 +31°C° 0 mm 3 mps 736 mmHg 19%
    01:00 +30°C° 0 mm 3 mps 736 mmHg 21%
    02:00 +29°C° 0 mm 3 mps 736 mmHg 22%
    03:00 +28°C° 0.2 mm 3 mps 736 mmHg 25%
    04:00 +27°C° 0.2 mm 2 mps 736 mmHg 27%
    05:00 +26°C° 0.2 mm 2 mps 736 mmHg 30%
    06:00 +28°C° 0 mm 2 mps 737 mmHg 27%
    07:00 +30°C° 0 mm 2 mps 738 mmHg 25%
    08:00 +32°C° 0 mm 1 mps 738 mmHg 22%
    09:00 +35°C° 0 mm 2 mps 739 mmHg 19%
    10:00 +38°C° 0 mm 2 mps 739 mmHg 16%
    11:00 +40°C° 0 mm 3 mps 739 mmHg 13%
    12:00 +42°C° 0 mm 3 mps 738 mmHg 12%
    13:00 +42°C° 0 mm 3 mps 737 mmHg 11%
    14:00 +43°C° 0 mm 3 mps 737 mmHg 10%
    15:00 +42°C° 0 mm 3 mps 736 mmHg 11%
    16:00 +42°C° 0 mm 3 mps 736 mmHg 11%
    17:00 +40°C° 0 mm 3 mps 736 mmHg 12%
    18:00 +38°C° 0 mm 3 mps 736 mmHg 13%
    19:00 +36°C° 0 mm 3 mps 737 mmHg 14%
    20:00 +34°C° 0 mm 2 mps 737 mmHg 15%
    21:00 +33°C° 0 mm 3 mps 737 mmHg 14%
    22:00 +31°C° 0 mm 3 mps 737 mmHg 13%
    23:00 +30°C° 0 mm 3 mps 737 mmHg 12%
    Show more